Show Low, AZ

11:54 PM MST on May 25, 2017 (GMT -0700)
Show Low Municipal

Weather History for KSOW - January, 2013

Change the Weather History Date:

Thursday, January 24, 2013

  Actual Average Record
Temperature  
Mean Temperature 42 °F -  
Max Temperature 51 °F 44 °F 62 °F (1970)
Min Temperature 33 °F 28 °F 2 °F (1966)
Degree Days  
Heating Degree Days 23    
Moisture  
Dew Point 28 °F    
Average Humidity 58    
Maximum Humidity 93    
Minimum Humidity 37    
Precipitation  
Precipitation 0.00 in - - ()
Sea Level Pressure  
Sea Level Pressure 30.33 in    
Wind  
Wind Speed 6 mph (SSW)    
Max Wind Speed 18 mph    
Max Gust Speed 24 mph    
Visibility 10 miles    
Events Rain    
Averages and records for this station are not official NWS values.
T = Trace of Precipitation, MM = Missing Value Source: NWS Daily Summary

Daily Weather History Graph

Daily Weather History Graph

Search for Another Location

Airport or City:

Trip Planner

Search our weather history database for the weather conditions in past years. The results will help you decide how hot, cold, wet, or windy it might be!

Date:

Astronomy

Jan. 24, 2013 Rise Set
Actual Time 7:22 AM MST 5:42 PM MST
Civil Twilight 6:55 AM MST 6:09 PM MST
Nautical Twilight 6:25 AM MST 6:39 PM MST
Astronomical Twilight 5:55 AM MST 7:09 PM MST
Moon 3:48 PM MST (1/24) 5:20 AM MST (1/24)
Length of Visible Light 11h 13m
Length of Day
10h 20m
Waxing Gibbous, 95% of the Moon is Illuminated
Jan 24
Waxing Gibbous
Jan 26
Full
Feb 3
Last Quarter
Feb 10
New
Feb 17
First Quarter

Hourly Weather History & Observations

Time (MST) Temp. Windchill Dew Point Humidity Pressure Visibility Wind Dir Wind Speed Gust Speed Precip Events Conditions
12:15 AM 35.6 °F - 15.8 °F 44% 30.34 in 10.0 mi Calm Calm - N/A   Clear
12:55 AM 35.6 °F - 15.8 °F 44% 30.35 in 10.0 mi Calm Calm - N/A   Clear
1:15 AM 35.6 °F - 14.0 °F 41% 30.35 in 10.0 mi Calm Calm - N/A   Clear
1:35 AM 33.8 °F - 17.6 °F 52% 30.35 in 10.0 mi Calm Calm - N/A   Clear
1:55 AM 33.8 °F 27.0 °F 17.6 °F 52% 30.35 in 10.0 mi South 8.1 mph - N/A   Clear
2:15 AM 37.4 °F 31.4 °F 17.6 °F 45% 30.35 in 10.0 mi South 8.1 mph - N/A   Clear
2:35 AM 37.4 °F 32.1 °F 19.4 °F 48% 30.35 in 10.0 mi South 6.9 mph - N/A   Clear
2:55 AM 39.2 °F 33.6 °F 19.4 °F 45% 30.36 in 10.0 mi South 8.1 mph - N/A   Clear
3:15 AM 41.0 °F 35.8 °F 19.4 °F 42% 30.36 in 10.0 mi South 8.1 mph - N/A   Clear
3:35 AM 41.0 °F 36.4 °F 21.2 °F 45% 30.35 in 10.0 mi South 6.9 mph - N/A   Clear
3:55 AM 41.0 °F 38.0 °F 23.0 °F 49% 30.34 in 10.0 mi South 4.6 mph - N/A   Clear
4:15 AM 39.2 °F - 23.0 °F 52% 30.34 in 10.0 mi Calm Calm - N/A   Partly Cloudy
4:35 AM 41.0 °F - 21.2 °F 45% 30.34 in 10.0 mi Calm Calm - N/A   Clear
4:55 AM 39.2 °F - 23.0 °F 52% 30.33 in 10.0 mi Calm Calm - N/A   Clear
5:15 AM 39.2 °F - 23.0 °F 52% 30.32 in 10.0 mi Calm Calm - N/A   Clear
5:35 AM 39.2 °F - 23.0 °F 52% 30.33 in 10.0 mi Calm Calm - N/A   Clear
5:55 AM 39.2 °F - 23.0 °F 52% 30.33 in 10.0 mi Calm Calm - N/A   Clear
6:15 AM 41.0 °F - 23.0 °F 49% 30.33 in 10.0 mi Calm Calm - N/A   Partly Cloudy
6:35 AM 42.8 °F - 23.0 °F 46% 30.34 in 10.0 mi Calm Calm - N/A   Clear
6:55 AM 41.0 °F - 23.0 °F 49% 30.34 in 10.0 mi Calm Calm - N/A   Clear
7:15 AM 39.2 °F - 23.0 °F 52% 30.34 in 10.0 mi Calm Calm - N/A   Partly Cloudy
7:35 AM 37.4 °F - 23.0 °F 56% 30.34 in 10.0 mi Calm Calm - N/A   Partly Cloudy
7:55 AM 39.2 °F - 23.0 °F 52% 30.34 in 10.0 mi Calm Calm - N/A   Scattered Clouds
8:15 AM 39.2 °F - 26.6 °F 61% 30.34 in 10.0 mi Calm Calm - N/A   Mostly Cloudy
8:35 AM 41.0 °F 39.0 °F 24.8 °F 53% 30.34 in 10.0 mi South 3.5 mph - N/A   Overcast
8:55 AM 46.4 °F 42.9 °F 24.8 °F 43% 30.34 in 10.0 mi South 6.9 mph - N/A   Overcast
9:15 AM 46.4 °F 42.4 °F 24.8 °F 43% 30.35 in 10.0 mi South 8.1 mph - N/A   Mostly Cloudy
9:35 AM 48.2 °F - 24.8 °F 40% 30.35 in 10.0 mi South 6.9 mph - N/A   Partly Cloudy
9:55 AM 48.2 °F - 24.8 °F 40% 30.36 in 10.0 mi SSW 11.5 mph - N/A   Mostly Cloudy
10:15 AM 50.0 °F - 24.8 °F 37% 30.37 in 10.0 mi SSW 8.1 mph - N/A   Mostly Cloudy
10:35 AM 51.8 °F - 26.6 °F 38% 30.36 in 10.0 mi SSW 13.8 mph - N/A   Scattered Clouds
10:55 AM 51.8 °F - 28.4 °F 41% 30.37 in 10.0 mi SW 10.4 mph - N/A   Mostly Cloudy
11:15 AM 51.8 °F - 26.6 °F 38% 30.37 in 10.0 mi SW 13.8 mph 17.3 mph N/A   Partly Cloudy
11:35 AM 50.0 °F - 26.6 °F 40% 30.36 in 10.0 mi SSW 10.4 mph - N/A   Clear
11:55 AM 50.0 °F - 26.6 °F 40% 30.36 in 10.0 mi SW 11.5 mph 19.6 mph N/A   Scattered Clouds
12:15 PM 50.0 °F - 28.4 °F 43% 30.36 in 10.0 mi SSW 18.4 mph 24.2 mph N/A   Scattered Clouds
12:35 PM 48.2 °F - 28.4 °F 46% 30.35 in 10.0 mi SSW 16.1 mph 24.2 mph N/A   Mostly Cloudy
12:55 PM 46.4 °F 40.4 °F 32.0 °F 57% 30.34 in 8.0 mi SSW 13.8 mph - N/A Rain Light Rain
1:15 PM 46.4 °F 41.9 °F 33.8 °F 62% 30.32 in 8.0 mi South 9.2 mph - N/A Rain Light Rain
1:35 PM 48.2 °F - 35.6 °F 62% 30.30 in 10.0 mi South 15.0 mph - N/A Rain Light Rain
1:55 PM 48.2 °F - 33.8 °F 58% 30.29 in 10.0 mi South 16.1 mph - N/A   Mostly Cloudy
2:15 PM 48.2 °F - 32.0 °F 54% 30.27 in 10.0 mi South 15.0 mph 24.2 mph N/A   Scattered Clouds
2:35 PM 48.2 °F - 32.0 °F 54% 30.28 in 10.0 mi SSW 13.8 mph 21.9 mph N/A   Mostly Cloudy
2:55 PM 48.2 °F - 32.0 °F 54% 30.29 in 10.0 mi South 17.3 mph 20.7 mph N/A   Overcast
3:15 PM 48.2 °F - 32.0 °F 54% 30.28 in 10.0 mi SSW 15.0 mph - N/A   Mostly Cloudy
3:35 PM 48.2 °F - 32.0 °F 54% 30.28 in 10.0 mi SSW 16.1 mph 19.6 mph N/A   Partly Cloudy
3:55 PM 48.2 °F - 32.0 °F 54% 30.28 in 10.0 mi SSW 12.7 mph - N/A   Clear
4:15 PM 48.2 °F - 32.0 °F 54% 30.27 in 10.0 mi South 15.0 mph 21.9 mph N/A   Scattered Clouds
4:35 PM 48.2 °F - 32.0 °F 54% 30.29 in 10.0 mi SW 13.8 mph 19.6 mph N/A   Scattered Clouds
4:55 PM 48.2 °F - 32.0 °F 54% 30.31 in 10.0 mi SW 8.1 mph - N/A   Mostly Cloudy
5:15 PM 46.4 °F 41.1 °F 32.0 °F 57% 30.32 in 10.0 mi SW 11.5 mph 18.4 mph N/A   Overcast
5:35 PM 46.4 °F 40.4 °F 32.0 °F 57% 30.33 in 10.0 mi SSW 13.8 mph 18.4 mph N/A   Overcast
5:55 PM 44.6 °F 39.2 °F 32.0 °F 61% 30.33 in 10.0 mi SSW 10.4 mph - N/A   Mostly Cloudy
6:15 PM 44.6 °F 38.4 °F 33.8 °F 66% 30.33 in 10.0 mi SSW 12.7 mph - N/A   Mostly Cloudy
6:35 PM 44.6 °F 39.2 °F 35.6 °F 71% 30.33 in 10.0 mi SSW 10.4 mph - N/A   Overcast
6:55 PM 42.8 °F 38.6 °F 35.6 °F 76% 30.34 in 10.0 mi SW 6.9 mph - N/A   Overcast
7:15 PM 42.8 °F 40.1 °F 35.6 °F 76% 30.34 in 10.0 mi SW 4.6 mph - N/A   Overcast
7:35 PM 41.0 °F 37.1 °F 35.6 °F 81% 30.34 in 10.0 mi SSW 5.8 mph - N/A   Overcast
7:55 PM 41.0 °F 37.1 °F 35.6 °F 81% 30.34 in 10.0 mi South 5.8 mph - N/A   Mostly Cloudy
8:15 PM 41.0 °F 35.8 °F 35.6 °F 81% 30.33 in 10.0 mi South 8.1 mph - N/A   Mostly Cloudy
8:35 PM 41.0 °F 35.8 °F 35.6 °F 81% 30.34 in 9.0 mi South 8.1 mph - N/A Rain Light Rain
8:55 PM 41.0 °F 35.2 °F 35.6 °F 81% 30.33 in 10.0 mi South 9.2 mph - N/A Rain Light Rain
9:15 PM 41.0 °F 34.3 °F 37.4 °F 87% 30.33 in 10.0 mi South 11.5 mph - N/A   Mostly Cloudy
9:35 PM 39.2 °F 33.6 °F 37.4 °F 93% 30.33 in 10.0 mi South 8.1 mph - N/A   Mostly Cloudy
9:55 PM 39.2 °F 32.5 °F 37.4 °F 93% 30.33 in 10.0 mi South 10.4 mph - N/A   Partly Cloudy
10:15 PM 39.2 °F 33.0 °F 37.4 °F 93% 30.33 in 10.0 mi SSW 9.2 mph - N/A   Clear
10:35 PM 39.2 °F 31.2 °F 37.4 °F 93% 30.35 in 10.0 mi SSW 13.8 mph - N/A   Scattered Clouds
10:55 PM 39.2 °F 31.2 °F 37.4 °F 93% 30.35 in 10.0 mi SSW 13.8 mph - N/A   Mostly Cloudy
11:15 PM 41.0 °F 33.9 °F 37.4 °F 87% 30.34 in 10.0 mi South 12.7 mph - N/A   Mostly Cloudy
11:35 PM 41.0 °F 34.3 °F 37.4 °F 87% 30.34 in 10.0 mi South 11.5 mph - N/A   Scattered Clouds
11:55 PM 41.0 °F 34.3 °F 37.4 °F 87% 30.36 in 10.0 mi South 11.5 mph - N/A   Partly Cloudy